This demonstration page uses our WeatherBlox Daily Observations layout. Learn more.

Left ArrowRight Arrow

Hourly Observations for February 8, 2020

Temp ( °F °C ) Dew Point ( °F °C ) Humidity (%) Winds ( mph kmh ) Pressure ( in mb ) Visibility ( mi km ) Precip ( " mm )
12:59 am 00:59 Clear 40 4.4 21 -6.1 47 47 W 18 30 30.05 1018 10 16 0.00 0.00
1:59 am 01:59 Clear 39 3.9 22 -5.6 50 50 W 13 20 30.09 1019 10 16 0.00 0.00
2:59 am 02:59 Clear 38 3.3 23 -5 55 55 WNW 15 24 30.12 1020 10 16 0.00 0.00
3:59 am 03:59 Clear 37 2.8 23 -5 57 57 W 12 19 30.16 1022 10 16 0.00 0.00
4:59 am 04:59 Clear 37 2.8 22 -5.6 54 54 W 10 17 30.19 1022 10 16 0.00 0.00
5:59 am 05:59 Clear 37 2.8 22 -5.6 54 54 WNW 10 17 30.23 1024 10 16 0.00 0.00
6:59 am 06:59 Clear 36 2.2 23 -5 59 59 W 7 11 30.26 1025 10 16 0.00 0.00
7:59 am 07:59 Sunny 38 3.3 24 -4.4 57 57 W 6 9 30.29 1026 10 16 0.00 0.00
8:59 am 08:59 Sunny 39 3.9 24 -4.4 55 55 W 7 11 30.31 1026 10 16 0.00 0.00
9:59 am 09:59 Sunny 42 5.6 25 -3.9 51 51 WNW 7 11 30.31 1027 10 16 0.00 0.00
10:59 am 10:59 Sunny 43 6.1 22 -5.6 43 43 VRB 7 11 30.32 1027 10 16 0.00 0.00
11:59 am 11:59 Mostly Sunny 44 6.7 19 -7.2 37 37 W 8 13 30.32 1027 10 16 0.00 0.00
12:59 pm 12:59 Partly Cloudy 44 6.7 19 -7.2 37 37 VRB 3 6 30.27 1025 10 16 0.00 0.00
1:59 pm 13:59 Partly Cloudy 46 7.8 21 -6.1 37 37 SW 5 7 30.26 1025 10 16 0.00 0.00
2:59 pm 14:59 Mostly Cloudy 45 7.2 26 -3.3 48 48 ENE 7 11 30.27 1025 10 16 0.00 0.00
3:59 pm 15:59 Cloudy 43 6.1 26 -3.3 51 51 E 9 15 30.27 1025 10 16 0.00 0.00
4:59 pm 16:59 Cloudy 43 6.1 27 -2.8 53 53 ESE 5 7 30.30 1026 10 16 0.00 0.00
5:59 pm 17:59 Cloudy 45 7.2 23 -5 42 42 WSW 6 9 30.32 1027 10 16 0.00 0.00
6:59 pm 18:59 Cloudy 44 6.7 24 -4.4 45 45 SW 5 7 30.33 1027 10 16 0.00 0.00
7:59 pm 19:59 Mostly Cloudy 44 6.7 25 -3.9 47 47 SW 8 13 30.34 1027 10 16 0.00 0.00
8:59 pm 20:59 Partly Cloudy 41 5 25 -3.9 53 53 SSW 6 9 30.35 1028 10 16 0.00 0.00
9:59 pm 21:59 Mostly Cloudy 41 5 26 -3.3 55 55 SSW 5 7 30.36 1028 10 16 0.00 0.00
10:59 pm 22:59 Mostly Cloudy 42 5.6 27 -2.8 55 55 SSW 6 9 30.37 1029 10 16 0.00 0.00
11:59 pm 23:59 Cloudy 42 5.6 28 -2.2 58 58 SW 9 15 30.39 1029 10 16 0.00 0.00

Powered by AerisWeather